DW7995 Weather Reports


Display with metric or nautical units.
time (UTC)temp
F
wind
direction
speed
MPH
gust
MPH
rain 1hr
in
rain 24hr
in
rain mn
in
humidity
%
barometer
mb
20260904011039 71 0 0.0 0.0 0.00 0.16 0.16 67 1021.2
20260904010539 72 0 0.0 0.0 0.00 0.16 0.16 66 1021.2
20260904010115 73 0 0.0 2.0 0.00 0.16 0.16 62 1021.2
20260904005544 73 0 0.0 2.0 0.00 0.16 0.16 60 1021.2
20260904005039 73 288 0.0 0.0 0.00 0.16 0.16 62 1021.2
20260904004555 74 0 0.0 0.0 0.00 0.16 0.16 60 1021.2
20260904004039 75 0 0.0 0.0 0.00 0.16 0.16 58 1021.2
20260904003538 75 0 0.0 0.0 0.00 0.16 0.16 58 1021.2
20260904003100 76 0 0.0 0.0 0.00 0.16 0.16 55 1021.2
20260904002540 76 0 0.0 2.0 0.00 0.16 0.16 53 1021.2
20260904002041 77 0 0.0 2.0 0.00 0.16 0.16 53 1021.2
20260904001555 77 0 0.0 0.0 0.00 0.16 0.16 52 1021.2
20260904001039 77 0 0.0 0.0 0.00 0.16 0.16 50 1021.2
20260904000539 78 0 0.0 0.0 0.00 0.16 0.16 50 1021.2
20260904000057 78 0 0.0 0.0 0.00 0.16 0.16 49 1021.2
20260903235542 78 0 0.0 0.0 0.00 0.16 0.16 50 1021.2
20260903235038 79 0 0.0 0.0 0.00 0.16 0.16 52 1021.2
20260903234558 79 0 0.0 0.0 0.00 0.16 0.16 50 1021.2
20260903234039 79 0 0.0 0.0 0.00 0.16 0.16 50 1021.2
20260903233542 80 0 0.0 4.0 0.00 0.16 0.16 50 1021.2
20260903233049 80 0 0.0 8.0 0.00 0.16 0.16 46 1021.2
20260903232539 79 173 0.0 8.0 0.00 0.16 0.16 48 1021.2
20260903232039 78 0 0.0 6.0 0.00 0.16 0.16 48 1021.2
20260903231554 79 227 0.0 5.0 0.00 0.16 0.16 49 1021.2
20260903231039 79 0 0.0 5.0 0.00 0.16 0.16 49 1021.2
20260903230539 79 0 0.0 3.0 0.00 0.16 0.16 50 1021.2
20260903230051 79 0 0.0 10.0 0.00 0.16 0.16 50 1021.2
20260903225544 79 163 3.0 10.0 0.00 0.16 0.16 49 1021.2
20260903225038 80 0 1.0 5.0 0.00 0.16 0.16 49 1021.2
20260903224554 81 0 0.0 6.0 0.00 0.16 0.16 49 1021.2
20260903224039 81 0 1.0 6.0 0.00 0.16 0.16 46 1021.2
20260903223538 82 0 0.0 0.0 0.00 0.16 0.16 46 1021.2
20260903223055 82 0 0.0 0.0 0.00 0.16 0.16 45 1021.2
20260903222539 82 161 0.0 0.0 0.00 0.16 0.16 48 1021.2
20260903222039 81 0 0.0 0.0 0.00 0.16 0.16 47 1021.2
20260903221553 81 0 0.0 0.0 0.00 0.16 0.16 51 1021.2
20260903221038 81 0 0.0 0.0 0.00 0.16 0.16 52 1021.2
20260903220538 80 0 0.0 0.0 0.00 0.16 0.16 52 1021.2
20260903220056 79 0 0.0 0.0 0.00 0.16 0.16 57 1021.2
20260903215539 78 0 0.0 0.0 0.00 0.16 0.16 58 1021.2
20260903215040 78 0 0.0 0.0 0.00 0.16 0.16 60 1021.2
20260903214558 78 0 0.0 0.0 0.00 0.16 0.16 62 1021.2
20260903214040 78 0 0.0 0.0 0.00 0.16 0.16 61 1021.2
20260903213539 78 0 0.0 0.0 0.00 0.16 0.16 66 1021.2
20260903213056 76 0 0.0 0.0 0.00 0.16 0.16 72 1021.2
20260903212540 75 0 0.0 0.0 0.00 0.16 0.16 74 1021.2
20260903212040 74 0 0.0 0.0 0.00 0.16 0.16 77 1021.2
20260903211559 73 0 0.0 0.0 0.00 0.16 0.16 82 1021.2
20260903211039 72 0 0.0 0.0 0.00 0.16 0.16 83 1021.2
20260903210540 73 0 0.0 0.0 0.01 0.16 0.16 82 1021.2
20260903210114 73 0 0.0 0.0 0.01 0.16 0.16 85 1021.2
20260903205540 72 0 0.0 0.0 0.02 0.16 0.16 83 1021.2
20260903205040 72 0 0.0 0.0 0.05 0.16 0.16 83 1021.2
20260903204613 71 0 0.0 0.0 0.06 0.16 0.16 82 1021.2
20260903204038 70 0 0.0 0.0 0.08 0.16 0.16 83 1021.2
20260903203538 70 0 0.0 0.0 0.12 0.16 0.16 83 1021.2
20260903203057 69 0 0.0 0.0 0.14 0.16 0.16 86 1021.2
20260903202538 68 0 0.0 1.0 0.15 0.16 0.16 88 1021.2
20260903202039 67 0 0.0 1.0 0.16 0.16 0.16 87 1021.2
20260903201600 67 0 0.0 1.0 0.16 0.16 0.16 87 1021.2
20260903201038 66 0 0.0 0.0 0.16 0.16 0.16 89 1021.2
20260903200539 66 0 0.0 0.0 0.15 0.15 0.15 88 1021.2
20260903200058 66 0 0.0 0.0 0.14 0.14 0.14 86 1021.2
20260903195539 66 0 0.0 0.0 0.14 0.14 0.14 87 1021.2
20260903195039 66 0 0.0 0.0 0.11 0.11 0.11 85 1021.2
20260903194559 66 0 0.0 0.0 0.10 0.10 0.10 83 1021.2
20260903194039 67 0 0.0 5.0 0.08 0.08 0.08 81 1021.2
20260903193541 68 0 0.0 5.0 0.04 0.04 0.04 74 1021.2
20260903193059 69 144 1.0 5.0 0.02 0.02 0.02 74 1021.2
20260903192540 71 58 0.0 6.0 0.01 0.01 0.01 70 1021.2
20260903192040 72 89 4.0 13.0 0.00 0.00 0.00 62 1021.2
20260903191559 74 0 2.0 13.0 0.00 0.00 0.00 60 1021.2
20260903191040 75 66 5.0 11.0 0.00 0.00 0.00 56 1021.2
20260903190539 76 72 4.0 11.0 0.00 0.00 0.00 56 1021.2
20260903190104 77 13 2.0 11.0 0.00 0.00 0.00 54 1021.2
20260903185539 78 83 1.0 9.0 0.00 0.01 0.00 52 1021.2
20260903185039 79 20 4.0 10.0 0.00 0.01 0.00 52 1021.2
20260903184604 80 113 5.0 10.0 0.00 0.01 0.00 49 1021.2
20260903184040 83 70 0.0 4.0 0.00 0.01 0.00 43 1021.2
20260903183539 82 0 0.0 7.0 0.00 0.01 0.00 44 1021.2
20260903183101 82 0 1.0 7.0 0.00 0.01 0.00 43 1021.2
20260903182540 82 329 0.0 0.0 0.00 0.01 0.00 43 1021.2
20260903182039 82 0 0.0 2.0 0.00 0.01 0.00 44 1021.2
20260903181555 82 0 0.0 2.0 0.00 0.01 0.00 44 1021.2
20260903181039 81 0 0.0 5.0 0.00 0.01 0.00 44 1021.2
20260903180540 81 0 0.0 5.0 0.00 0.01 0.00 44 1021.2
20260903180100 81 0 1.0 5.0 0.00 0.01 0.00 44 1021.2
20260903175539 81 0 0.0 6.0 0.00 0.01 0.00 45 1021.2
20260903175040 81 0 1.0 7.0 0.00 0.01 0.00 44 1021.2
20260903174558 82 243 1.0 7.0 0.00 0.01 0.00 44 1021.2
20260903174041 82 238 3.0 7.0 0.00 0.01 0.00 43 1021.2
20260903173540 81 235 0.0 6.0 0.00 0.01 0.00 44 1021.2
20260903173059 81 0 0.0 7.0 0.00 0.01 0.00 44 1021.2
20260903172539 82 0 3.0 8.0 0.00 0.01 0.00 43 1021.2
20260903172039 84 220 3.0 8.0 0.00 0.01 0.00 41 1021.2
20260903171603 83 236 3.0 8.0 0.00 0.01 0.00 43 1021.2
20260903171042 83 246 2.0 7.0 0.00 0.01 0.00 42 1021.2
20260903170540 83 0 2.0 9.0 0.00 0.01 0.00 42 1021.2
20260903165540 82 223 2.0 9.0 0.00 0.01 0.00 44 1021.2
20260903165039 83 205 5.0 11.0 0.00 0.01 0.00 43 1021.2
20260903164606 83 236 4.0 11.0 0.00 0.01 0.00 43 1021.2
20260903164040 83 295 5.0 11.0 0.00 0.01 0.00 43 1021.2
20260903163540 83 211 5.0 11.0 0.00 0.01 0.00 43 1021.2
20260903163111 83 183 4.0 9.0 0.00 0.01 0.00 43 1021.2
20260903162539 83 214 4.0 8.0 0.00 0.01 0.00 42 1021.2
20260903162039 83 0 4.0 8.0 0.00 0.01 0.00 43 1021.2
20260903161600 83 176 2.0 8.0 0.00 0.01 0.00 44 1021.2
20260903161039 82 0 1.0 10.0 0.00 0.01 0.00 46 1021.2
20260903160540 82 0 0.0 10.0 0.00 0.01 0.00 45 1021.2
20260903160107 82 236 3.0 8.0 0.00 0.01 0.00 44 1021.2
20260903155540 81 235 3.0 6.0 0.00 0.01 0.00 44 1021.2
20260903155039 82 0 2.0 9.0 0.00 0.01 0.00 45 1021.2
20260903154602 81 0 3.0 9.0 0.00 0.01 0.00 45 1021.2
20260903154039 81 0 3.0 10.0 0.00 0.01 0.00 46 1021.2
20260903153539 80 295 4.0 10.0 0.00 0.01 0.00 46 1021.2
20260903153102 80 229 2.0 9.0 0.00 0.01 0.00 45 1021.2
20260903152540 81 282 0.0 8.0 0.00 0.01 0.00 45 1021.2
20260903152040 80 306 3.0 8.0 0.00 0.01 0.00 46 1021.2
20260903151558 80 204 2.0 7.0 0.00 0.01 0.00 46 1021.2
20260903151039 81 229 0.0 4.0 0.00 0.01 0.00 46 1021.2
20260903150540 80 295 0.0 3.0 0.00 0.01 0.00 47 1021.2
20260903150107 80 0 0.0 3.0 0.00 0.01 0.00 47 1021.2
20260903145539 79 0 0.0 3.0 0.00 0.01 0.00 48 1021.2
20260903145040 79 0 0.0 4.0 0.00 0.01 0.00 50 1021.2
20260903144605 78 0 0.0 5.0 0.00 0.01 0.00 50 1021.2
20260903144039 78 0 0.0 5.0 0.00 0.01 0.00 51 1021.2
20260903143542 78 0 0.0 5.0 0.00 0.01 0.00 51 1021.2
20260903143105 77 0 0.0 0.0 0.00 0.01 0.00 55 1021.2
20260903142543 75 0 0.0 0.0 0.00 0.01 0.00 58 1021.2
20260903142039 73 0 0.0 0.0 0.00 0.01 0.00 63 1021.2
20260903141559 71 0 0.0 0.0 0.00 0.01 0.00 67 1021.2
20260903141041 69 0 0.0 0.0 0.00 0.01 0.00 73 1021.2
20260903140539 68 0 0.0 0.0 0.00 0.01 0.00 72 1021.2
20260903140112 67 0 0.0 0.0 0.00 0.01 0.00 73 1021.2
20260903135540 67 0 0.0 0.0 0.00 0.01 0.00 73 1021.2
20260903135039 67 0 0.0 0.0 0.00 0.01 0.00 73 1021.2
20260903134559 66 0 0.0 0.0 0.00 0.01 0.00 73 1021.2
20260903134040 65 0 0.0 0.0 0.00 0.01 0.00 74 1021.2
20260903133539 65 0 0.0 0.0 0.00 0.01 0.00 75 1021.2
20260903133108 65 0 0.0 0.0 0.00 0.01 0.00 75 1021.2
20260903132543 65 0 0.0 0.0 0.00 0.01 0.00 75 1021.2
20260903132042 64 0 0.0 0.0 0.00 0.01 0.00 76 1021.2
20260903131557 64 0 0.0 0.0 0.00 0.01 0.00 76 1021.2
20260903131040 63 0 0.0 0.0 0.00 0.01 0.00 75 1021.2
20260903130539 63 0 0.0 0.0 0.00 0.01 0.00 75 1021.2
20260903125540 63 0 0.0 0.0 0.00 0.01 0.00 75 1021.2
20260903125040 63 0 0.0 0.0 0.00 0.01 0.00 75 1021.2
20260903124557 63 0 0.0 0.0 0.00 0.01 0.00 75 1021.2
20260903124042 63 0 0.0 0.0 0.00 0.01 0.00 74 1021.2
20260903123544 64 0 0.0 0.0 0.00 0.01 0.00 73 1021.2
20260903123101 64 0 0.0 0.0 0.00 0.01 0.00 72 1021.2
20260903122541 65 0 0.0 0.0 0.00 0.01 0.00 72 1021.2
20260903122040 66 0 0.0 0.0 0.00 0.01 0.00 70 1021.2
20260903121555 67 0 0.0 0.0 0.00 0.01 0.00 69 1021.2
20260903121039 67 0 0.0 0.0 0.00 0.01 0.00 69 1021.2
20260903120539 67 0 0.0 0.0 0.00 0.01 0.00 69 1021.2
20260903120106 67 0 0.0 0.0 0.00 0.01 0.00 68 1021.2
20260903115542 67 0 0.0 0.0 0.00 0.01 0.00 69 1021.2
20260903115042 67 0 0.0 0.0 0.00 0.01 0.00 68 1021.2
20260903114558 68 0 0.0 0.0 0.00 0.01 0.00 67 1021.2
20260903114038 69 0 0.0 0.0 0.00 0.01 0.00 65 1021.2
20260903113540 69 0 0.0 0.0 0.00 0.01 0.00 65 1021.2
20260903113056 69 0 0.0 0.0 0.00 0.01 0.00 65 1021.2
20260903112541 70 0 0.0 0.0 0.00 0.01 0.00 63 1021.2
20260903112040 71 0 0.0 0.0 0.00 0.01 0.00 62 1021.2
20260903111557 71 0 0.0 0.0 0.00 0.01 0.00 61 1021.2
20260903111039 72 0 0.0 0.0 0.00 0.01 0.00 60 1021.2
20260903110540 72 0 0.0 2.0 0.00 0.01 0.00 60 1021.2
20260903105540 73 231 1.0 12.0 0.00 0.01 0.00 59 1021.2
20260903105042 73 0 0.0 12.0 0.00 0.01 0.00 59 1021.2
20260903104559 73 0 3.0 12.0 0.00 0.01 0.00 58 1021.2
20260903104042 73 337 2.0 12.0 0.00 0.01 0.00 58 1021.2
20260903103543 74 222 6.0 13.0 0.00 0.01 0.00 58 1021.2
20260903103104 74 214 5.0 13.0 0.00 0.01 0.00 58 1021.2
20260903102540 74 137 6.0 13.0 0.00 0.01 0.00 58 1021.2
20260903102043 73 148 5.0 12.0 0.00 0.01 0.00 58 1021.2
20260903101602 73 166 5.0 16.0 0.00 0.01 0.00 58 1021.2
20260903101039 74 127 6.0 16.0 0.00 0.01 0.00 58 1021.2
20260903100540 74 264 5.0 12.0 0.00 0.01 0.00 58 1021.2
20260903095539 74 115 6.0 13.0 0.00 0.01 0.00 58 1021.2
20260903095039 73 207 3.0 13.0 0.00 0.01 0.00 58 1021.2
20260903094601 74 176 5.0 12.0 0.00 0.01 0.00 58 1021.2
20260903094039 73 207 6.0 17.0 0.00 0.01 0.00 58 1021.2
20260903093540 73 132 5.0 17.0 0.00 0.01 0.00 58 1021.2
20260903093119 74 127 6.0 17.0 0.00 0.01 0.00 58 1021.2
20260903092539 74 0 5.0 17.0 0.00 0.01 0.00 58 1021.2
20260903092040 74 262 5.0 17.0 0.00 0.01 0.00 58 1021.2
20260903091601 74 223 5.0 16.0 0.00 0.01 0.00 58 1021.2
20260903091040 74 223 6.0 17.0 0.00 0.01 0.00 58 1021.2
20260903090539 74 157 4.0 17.0 0.00 0.01 0.00 57 1021.2
20260903090058 74 116 7.0 16.0 0.00 0.01 0.00 58 1021.2
20260903085538 74 211 3.0 16.0 0.00 0.01 0.00 58 1021.2
20260903085040 74 206 4.0 16.0 0.00 0.01 0.00 57 1021.2
20260903084600 74 204 5.0 19.0 0.00 0.01 0.00 57 1021.2
20260903084040 74 245 4.0 19.0 0.00 0.01 0.00 57 1021.2
20260903083540 74 239 5.0 19.0 0.00 0.01 0.00 57 1021.2
20260903083102 74 80 3.0 15.0 0.00 0.01 0.00 57 1021.2
20260903082539 74 248 4.0 18.0 0.00 0.01 0.00 57 1021.2
20260903082039 74 155 4.0 19.0 0.00 0.01 0.00 57 1021.2
20260903081555 74 150 5.0 19.0 0.00 0.01 0.00 57 1021.2
20260903081040 74 121 5.0 16.0 0.00 0.01 0.00 57 1021.2
20260903080540 74 302 6.0 18.0 0.00 0.01 0.00 57 1021.2
20260903080110 74 223 3.0 18.0 0.00 0.01 0.00 56 1021.2
20260903075540 74 198 5.0 16.0 0.00 0.01 0.00 56 1021.2
20260903075040 74 243 5.0 17.0 0.00 0.01 0.00 56 1021.2
20260903074620 74 120 3.0 17.0 0.00 0.01 0.00 56 1021.2
20260903074039 74 207 4.0 13.0 0.00 0.01 0.00 56 1021.2
20260903073540 74 238 5.0 16.0 0.00 0.01 0.00 57 1021.2
20260903073108 74 250 4.0 16.0 0.00 0.01 0.00 57 1021.2
20260903072540 73 0 4.0 9.0 0.00 0.01 0.00 56 1021.2
20260903072039 73 221 2.0 8.0 0.00 0.01 0.00 56 1021.2
20260903071607 73 0 2.0 8.0 0.00 0.01 0.00 56 1021.2
20260903071040 72 272 0.0 8.0 0.00 0.01 0.00 57 1021.2
20260903070544 73 0 0.0 7.0 0.00 0.01 0.00 56 1021.2
20260903070057 72 0 2.0 7.0 0.00 0.01 0.00 57 1021.2
20260903065540 71 291 2.0 6.0 0.00 0.01 0.00 59 1021.2
20260903065039 68 0 0.0 5.0 0.00 0.01 0.00 63 1021.2
20260903064558 66 0 0.0 2.0 0.00 0.01 0.00 69 1021.2
20260903064040 63 0 0.0 0.0 0.00 0.01 0.00 73 1021.2
20260903063540 60 0 0.0 0.0 0.00 0.01 0.00 78 1021.2
20260903063054 60 0 0.0 0.0 0.00 0.01 0.00 79 1021.2
20260903062540 60 0 0.0 0.0 0.00 0.01 0.00 78 1021.2
20260903062041 60 0 0.0 0.0 0.00 0.01 0.00 78 1021.2
20260903061559 60 0 0.0 0.0 0.00 0.01 0.00 79 1021.2
20260903061039 60 0 0.0 0.0 0.00 0.01 0.00 79 1021.2
20260903060540 60 0 0.0 0.0 0.00 0.01 0.00 78 1021.2
20260903055540 61 0 0.0 0.0 0.00 0.01 0.00 78 1021.2
20260903055040 61 0 0.0 0.0 0.00 0.01 0.00 78 1021.2
20260903054601 61 0 0.0 0.0 0.00 0.01 0.00 77 1021.2
20260903054040 61 0 0.0 0.0 0.00 0.01 0.00 78 1021.2
20260903053540 61 0 0.0 0.0 0.00 0.01 0.00 77 1021.2
20260903053052 61 0 0.0 0.0 0.00 0.01 0.00 77 1021.2
20260903052540 61 0 0.0 0.0 0.00 0.01 0.00 77 1021.2
20260903052040 61 0 0.0 0.0 0.00 0.01 0.00 77 1021.2
20260903051558 61 0 0.0 0.0 0.00 0.01 0.00 77 1021.2
20260903051039 61 0 0.0 0.0 0.00 0.01 0.00 77 1021.2
20260903050539 60 0 0.0 0.0 0.00 0.01 0.00 77 1021.2
20260903050100 60 0 0.0 0.0 0.00 0.01 0.00 77 1021.2
20260903045539 60 0 0.0 0.0 0.00 0.01 0.01 78 1021.2
20260903045039 60 0 0.0 0.0 0.00 0.01 0.01 76 1021.2
20260903044557 60 0 0.0 0.0 0.00 0.01 0.01 75 1021.2
20260903044039 61 0 0.0 0.0 0.00 0.01 0.01 75 1021.2
20260903043539 61 0 0.0 0.0 0.00 0.01 0.01 75 1021.2
20260903043102 62 0 0.0 0.0 0.00 0.01 0.01 74 1021.2
20260903042543 62 0 0.0 0.0 0.00 0.01 0.01 75 1021.2
20260903042040 61 0 0.0 0.0 0.00 0.01 0.01 75 1021.2
20260903041556 61 0 0.0 0.0 0.00 0.01 0.01 76 1021.2
20260903041044 61 0 0.0 0.0 0.00 0.01 0.01 75 1021.2
20260903040539 61 0 0.0 0.0 0.00 0.01 0.01 74 1021.2
20260903040057 62 0 0.0 0.0 0.00 0.01 0.01 74 1021.2
20260903035539 62 0 0.0 0.0 0.00 0.01 0.01 73 1021.2
20260903035040 62 0 0.0 0.0 0.00 0.01 0.01 74 1021.2
20260903034605 62 0 0.0 0.0 0.00 0.01 0.01 73 1021.2
20260903034040 62 0 0.0 0.0 0.00 0.01 0.01 73 1021.2
20260903033539 62 0 0.0 0.0 0.00 0.01 0.01 73 1021.2
20260903033116 62 0 0.0 0.0 0.00 0.01 0.01 73 1021.2
20260903032540 62 0 0.0 0.0 0.00 0.01 0.01 72 1021.2
20260903032039 62 0 0.0 0.0 0.00 0.01 0.01 72 1021.2
20260903031633 63 0 0.0 0.0 0.00 0.01 0.01 71 1021.2
20260903031042 63 0 0.0 0.0 0.00 0.01 0.01 70 1021.2
20260903030539 63 0 0.0 0.0 0.00 0.01 0.01 71 1021.2
20260903030055 64 0 0.0 0.0 0.00 0.01 0.01 70 1021.2
20260903025540 64 0 0.0 0.0 0.00 0.01 0.01 70 1021.2
20260903025040 64 0 0.0 0.0 0.00 0.01 0.01 70 1021.2
20260903024557 64 0 0.0 0.0 0.00 0.01 0.01 69 1021.2
20260903024040 65 0 0.0 0.0 0.00 0.01 0.01 69 1021.2
20260903023542 65 0 0.0 0.0 0.00 0.01 0.01 68 1021.2
20260903023051 65 0 0.0 0.0 0.00 0.01 0.01 67 1021.2
20260903022542 66 0 0.0 0.0 0.00 0.01 0.01 67 1021.2
20260903022040 67 0 0.0 0.0 0.00 0.01 0.01 66 1021.2
20260903021552 67 0 0.0 0.0 0.00 0.01 0.01 64 1021.2
20260903021040 68 0 0.0 0.0 0.00 0.01 0.01 64 1021.2
20260903020542 68 0 0.0 0.0 0.00 0.01 0.01 63 1021.2
20260903020055 69 0 0.0 0.0 0.00 0.01 0.01 61 1021.2
20260903015540 70 0 0.0 0.0 0.00 0.01 0.01 61 1021.2
20260903015041 70 0 0.0 0.0 0.00 0.01 0.01 59 1021.2
20260903014557 71 0 0.0 0.0 0.00 0.01 0.01 58 1021.2
20260903014039 72 0 0.0 0.0 0.00 0.01 0.01 58 1021.2
20260903013540 72 0 0.0 0.0 0.00 0.01 0.01 57 1021.2
20260903013056 73 0 0.0 0.0 0.00 0.01 0.01 56 1021.2
20260903012540 74 0 0.0 0.0 0.00 0.01 0.01 54 1021.2
20260903012039 74 0 0.0 0.0 0.00 0.01 0.01 53 1021.2
20260903011558 75 0 0.0 0.0 0.00 0.01 0.01 52 1021.2